SCP
0 0 0 0 0 0 0 0 0 0 0 0 0 0 0 0 0 0 0 0 0 0 0 0 0 0 0 0 -0 0 0 0 0 0 0 0 0 0
0 0 0 0 0 -0 0 0 0 0 0 0 0 0 0 0 0 0 0 0 0 0 0 0 0 -0 -0 -0 0 0 0 0 0 0 0 0 0 0
0 0 0 0 0 0 0 0 0 0 0 0 0 0 0 0 0 0 0 0 0 -0 -0 0 0 0 -0 0 0 0 0 0 0 0 0 0 0 0
0 0 0 0 0 0 0 0 0 0 0 0 0 0 0 0 0 0 0 0 0 0 -0 0 0 0 0 0 0 0 0 0 0 0 0 0 0 0
0 0 0 0 0 0 0 0 0 0 0 0 0 0 0 0 0 0 0 0 0 0 0 0 0 0 0 0 0 0 0 0 0 0 0 0 0 0
0 0 0 0 0 0 0 -0 0 0 0 0 0 0 0 0 0 0 0 0 0 0 0 0 0 0 0 0 0 0 0 0 0 0 0 0 0 0
0 0 0 0 0 0 0 -0 0 0 0 0 0 0 0 0 0 0 0 0 0 0 0 0 0 0 0 0 0 0 0 0 0 0 0 0 0 0
0 0 0 0 0 0 0 0 0 0 0 0 0 0 0 0 0 0 0 0 0 0 0 0 0 0 0 0 0 0 0 0 0 0 0 0 0 0
0 0 0 0 0 0 0 0 0 0 0 0 0 0 0 0 0 0 0 0 0 0 0 0 0 0 0 0 0 0 0 0 0 0 0 0 0 0
0 0 0 0 -0 0 0 0 0 0 0 0 0 0 0 -0 0 -0 0 0 0 0 0 0 0 0 0 0 0 0 0 0 0 0 0 0 0 0
0 0 0 0 0 0 0 0 0 0 0 0 0 0 0 -0 0 0 0 0 0 0 0 0 0 0 0 0 0 0 0 0 0 0 0 0 0 0
0 0 0 0 0 0 0 0 0 0 0 0 0 0 0 -0 -0 -0 0 0 0 0 0 0 0 0 0 0 0 0 0 0 0 0 0 0 0 0
0 0 0 0 0 0 0 -0 -0 0 0 -0 -0 0 0 0 0 0 0 0 0 0 0 0 0 0 0 0 0 0 0 0 0 0 0 0 0 0
-0 -0 -0 -0 -0 0 0 0 0 -0 -0 -0 0 0 0 0 0 0 0 0 0 0 0 0 0 0 0 0 0 0 0 0 0 0 0 0 0 0
-0 -0 0 0 0 0 0 0 -0 -0 0 0 0 0 0 0 0 0 0 0 0 0 0 0 0 0 0 0 0 0 0 0 0 0 0 0 0 0
0 -0 0 0 0 0 -0 -0 0 0 0 0 0 0 0 0 0 0 0 0 0 0 0 0 0 0 0 0 0 0 0 0 0 0 0 0 0 0
-0 -0 0 0 0 0 0 0 0 0 0 0 0 0 0 0 0 0 0 0 0 0 0 0 0 0 0 0 0 0 0 0 0 0 0 0 0 0
0 0 0 0 0 0 0 0 0 0 0 0 0 0 0 0 0 0 0 0 0 0 0 0 0 0 0 0 0 0 0 0 0 0 0 0 0 0
0 0 0 0 0 0 0 0 0 0 0 0 0 0 0 0 0 0 0 0 0 0 0 0 0 0 0 0 -0 0 0 0 0 0 0 0 0 0
0 0 0 0 0 0 0 0 0 0 0 0 0 0 0 0 0 0 0 0 0 0 0 0 0 0 0 0 0 0 0 0 0 0 0 0 0 0
0 0 0 0 0 0 0 0 0 0 0 0 0 0 0 0 0 0 0 0 0 0 0 0 0 0 0 0 0 0 0 0 0 0 0 0 0 0
0 0 0 0 0 0 0 0 0 0 0 0 0 0 0 0 0 0 0 0 0 0 0 0 0 0 0 0 0 0 0 0 0 0 0 0 0 0
0 0 0 0 0 0 0 0 0 0 0 0 0 0 0 0 0 0 0 0 0 0 0 0 0 0 0 0 0 0 0 0 0 0 0 0 0 0
Wind_Speed_500mb
36 32 29 31 39 37 25 35 48 36 35 61 53 56 72 59 45 48 40 32 24 15 11 7 9 9 5 4 8 10 12 15 19 23 28 31 33 36
24 24 26 39 48 48 26 45 45 46 37 57 47 67 66 54 50 40 31 24 18 8 5 7 6 6 4 8 11 13 16 20 24 28 33 37 40 42
22 24 32 34 41 39 46 41 47 44 50 52 52 65 67 58 51 32 22 10 9 10 8 6 4 4 6 10 13 17 21 26 31 35 39 42 44 45
22 30 36 31 31 36 47 45 42 46 51 52 45 41 73 48 41 29 15 9 13 10 9 8 5 6 7 11 18 23 25 29 31 33 36 38 42 44
19 23 27 30 39 48 46 39 40 32 39 44 48 46 49 56 48 29 16 15 12 10 6 5 2 5 11 17 21 24 29 31 34 34 36 39 43 49
18 20 26 33 38 44 45 37 36 41 42 42 42 43 40 40 33 23 19 14 10 6 4 4 6 10 15 20 25 28 31 35 40 45 47 50 54 59
20 24 30 34 35 36 43 45 46 54 44 48 46 35 31 33 25 22 21 15 11 6 7 6 8 13 18 23 29 32 36 43 47 51 55 57 62 69
20 27 29 36 41 45 37 40 40 41 48 49 26 25 27 27 24 21 20 14 8 10 5 11 14 18 20 23 29 34 40 44 50 51 53 56 62 65
27 34 43 43 53 57 49 39 35 31 25 17 18 24 27 27 24 22 18 10 2 5 9 11 15 23 27 30 34 38 40 43 47 47 48 47 51 55
32 44 45 53 53 49 40 34 28 28 27 30 31 28 26 25 20 15 9 4 5 7 11 14 18 21 33 29 29 33 37 38 41 43 45 52 58 63
40 55 54 48 50 41 30 26 29 30 26 20 20 16 18 18 15 11 6 1 5 9 14 21 26 32 22 13 20 32 37 41 47 54 58 61 66 72
39 43 40 42 33 29 27 27 28 26 22 22 27 21 11 8 7 7 6 6 8 11 17 16 18 18 10 1 28 36 41 49 53 58 60 64 72 72
42 42 39 31 27 30 28 23 20 25 22 18 17 13 9 8 6 1 7 13 13 13 14 10 10 10 13 23 32 39 46 53 57 58 64 64 67 71
37 34 31 32 31 30 29 28 25 23 20 15 17 16 13 10 12 15 13 13 11 9 5 5 6 14 20 26 31 40 45 52 52 64 65 64 63 65
30 33 31 30 29 28 29 31 29 27 26 23 21 20 18 19 19 13 12 13 9 3 1 3 8 14 19 23 30 38 47 48 58 62 66 65 60 56
26 30 32 31 31 30 34 34 33 28 25 26 23 22 24 22 17 15 15 10 8 7 4 1 10 14 20 24 27 36 45 44 57 64 66 59 50 47
34 37 41 43 44 44 43 41 38 35 34 32 30 27 26 23 20 21 18 15 14 12 4 4 11 17 19 22 33 41 48 53 58 61 67 72 66 58
42 43 49 49 50 51 49 46 42 39 36 33 32 31 27 29 27 29 24 19 19 15 6 4 10 14 19 27 37 48 53 56 58 61 65 73 79 69
49 48 51 53 53 55 53 50 46 43 39 40 39 35 37 35 31 29 29 26 22 13 6 4 12 20 28 40 36 49 53 54 60 63 66 70 74 75
57 56 56 56 55 58 58 57 53 49 48 46 43 43 43 36 36 39 35 29 24 16 7 2 12 22 30 35 38 40 46 51 57 62 68 68 65 65
65 64 61 62 63 63 62 61 60 58 55 53 51 49 46 42 44 40 33 27 19 14 7 3 11 20 26 30 33 38 40 42 46 53 60 68 76 72
61 70 69 69 68 67 65 63 63 61 60 61 59 56 53 50 49 42 33 23 20 12 6 1 10 17 22 28 33 37 43 44 42 39 37 46 53 53
64 65 71 73 73 72 69 68 65 64 68 69 66 64 60 56 43 37 22 30 23 16 9 1 6 13 21 26 31 37 43 49 54 51 49 51 39 40
Wind_Direction_500mb
198 202 199 200 192 199 174 216 181 151 128 169 164 173 172 171 159 156 159 166 173 178 202 204 200 187 212 261 304 321 322 311 310 318 318 318 317 316
192 197 201 198 181 170 198 188 196 179 153 166 164 168 175 168 164 154 152 163 175 169 180 188 191 197 239 309 312 319 327 326 323 321 318 317 316 314
189 190 182 180 179 190 179 187 190 185 168 171 177 180 178 177 162 157 161 173 169 165 162 157 178 222 275 301 317 324 329 323 322 319 317 313 312 312
176 183 183 185 185 180 182 182 179 175 172 171 184 191 179 173 172 173 187 198 176 160 166 160 201 259 299 321 324 325 327 329 329 328 324 321 319 315
152 164 174 168 169 174 178 164 167 159 176 160 150 153 152 170 179 187 190 169 150 154 149 168 139 318 323 332 335 334 326 322 317 312 306 303 302 305
149 158 166 163 166 172 164 154 150 165 154 149 152 146 152 156 174 190 176 168 163 158 147 69 356 346 345 332 324 316 306 302 301 302 301 301 300 299
147 162 164 165 168 164 152 141 139 138 136 139 136 142 159 166 165 164 160 159 144 159 118 63 14 339 319 310 307 303 306 306 307 304 301 301 300 301
163 167 164 165 148 145 148 144 149 144 150 150 159 171 170 160 154 150 159 146 127 114 48 347 339 326 324 330 327 325 319 314 308 306 304 304 305 310
162 162 161 154 161 151 142 144 141 147 157 160 152 145 149 147 141 131 129 129 106 319 330 326 337 342 345 341 327 319 315 317 321 321 319 315 312 313
141 161 145 146 147 143 143 150 151 144 134 121 109 108 122 129 133 142 145 208 289 301 328 339 342 346 340 324 316 318 332 332 329 330 329 328 325 320
133 146 135 135 142 145 147 142 144 143 139 138 143 135 142 148 144 144 157 238 317 325 336 335 325 321 321 308 332 331 330 331 334 335 330 329 324 320
156 161 155 152 153 155 146 140 149 143 125 135 155 155 149 144 124 92 39 350 326 315 312 302 291 324 354 258 318 337 340 338 344 341 339 334 329 325
153 162 168 176 175 168 158 147 154 151 155 151 155 175 191 153 131 183 285 291 284 275 284 284 309 354 354 343 343 350 348 346 347 345 339 337 336 335
167 165 166 166 169 173 174 173 187 199 207 205 205 197 186 205 247 254 258 265 267 256 242 345 357 349 360 356 357 353 352 347 350 345 343 344 340 333
173 175 178 179 179 177 181 195 208 214 215 208 203 207 218 228 229 243 264 275 271 203 164 311 350 8 9 6 359 352 352 357 351 347 348 351 341 333
184 185 189 191 189 192 196 199 206 205 209 212 218 228 221 214 228 246 261 235 225 226 209 10 17 23 17 8 3 1 359 357 354 352 346 348 354 349
204 201 198 200 199 196 197 199 199 204 215 227 237 234 218 213 221 235 223 216 214 198 191 40 30 22 15 9 3 5 4 360 356 347 347 349 359 1
209 210 206 204 202 199 201 204 210 218 227 235 236 230 226 213 213 200 205 202 205 182 173 76 41 19 24 21 10 4 4 358 353 352 351 348 350 355
218 218 213 208 204 207 211 217 223 228 235 238 235 226 213 212 212 209 199 201 192 185 178 37 14 10 15 23 17 3 357 354 354 354 351 350 348 351
220 221 219 216 215 217 220 225 228 232 236 233 224 218 215 219 214 202 193 201 193 186 189 356 4 9 14 14 8 3 356 357 356 353 350 350 350 351
222 223 224 224 224 224 227 231 236 237 239 229 221 221 219 220 207 196 189 191 197 197 198 348 9 9 8 5 5 3 6 6 1 355 350 350 353 353
232 230 227 227 229 231 231 233 235 239 237 229 225 218 214 210 200 192 186 193 205 205 203 305 9 5 3 4 1 1 2 4 8 7 3 2 354 344
235 237 236 235 234 235 237 239 240 240 235 230 224 213 211 198 193 184 180 214 215 206 205 295 357 3 6 359 357 4 1 3 2 7 12 8 12 6
Wind_Speed_850mb
36 32 29 31 39 37 25 35 48 36 35 61 53 56 72 59 45 48 40 32 24 15 11 7 9 9 5 4 8 10 12 15 19 23 28 31 33 36
24 24 26 39 48 48 26 45 45 46 37 57 47 67 66 54 50 40 31 24 18 8 5 7 6 6 4 8 11 13 16 20 24 28 33 37 40 42
22 24 32 34 41 39 46 41 47 44 50 52 52 65 67 58 51 32 22 10 9 10 8 6 4 4 6 10 13 17 21 26 31 35 39 42 44 45
22 30 36 31 31 36 47 45 42 46 51 52 45 41 73 48 41 29 15 9 13 10 9 8 5 6 7 11 18 23 25 29 31 33 36 38 42 44
19 23 27 30 39 48 46 39 40 32 39 44 48 46 49 56 48 29 16 15 12 10 6 5 2 5 11 17 21 24 29 31 34 34 36 39 43 49
18 20 26 33 38 44 45 37 36 41 42 42 42 43 40 40 33 23 19 14 10 6 4 4 6 10 15 20 25 28 31 35 40 45 47 50 54 59
20 24 30 34 35 36 43 45 46 54 44 48 46 35 31 33 25 22 21 15 11 6 7 6 8 13 18 23 29 32 36 43 47 51 55 57 62 69
20 27 29 36 41 45 37 40 40 41 48 49 26 25 27 27 24 21 20 14 8 10 5 11 14 18 20 23 29 34 40 44 50 51 53 56 62 65
27 34 43 43 53 57 49 39 35 31 25 17 18 24 27 27 24 22 18 10 2 5 9 11 15 23 27 30 34 38 40 43 47 47 48 47 51 55
32 44 45 53 53 49 40 34 28 28 27 30 31 28 26 25 20 15 9 4 5 7 11 14 18 21 33 29 29 33 37 38 41 43 45 52 58 63
40 55 54 48 50 41 30 26 29 30 26 20 20 16 18 18 15 11 6 1 5 9 14 21 26 32 22 13 20 32 37 41 47 54 58 61 66 72
39 43 40 42 33 29 27 27 28 26 22 22 27 21 11 8 7 7 6 6 8 11 17 16 18 18 10 1 28 36 41 49 53 58 60 64 72 72
42 42 39 31 27 30 28 23 20 25 22 18 17 13 9 8 6 1 7 13 13 13 14 10 10 10 13 23 32 39 46 53 57 58 64 64 67 71
37 34 31 32 31 30 29 28 25 23 20 15 17 16 13 10 12 15 13 13 11 9 5 5 6 14 20 26 31 40 45 52 52 64 65 64 63 65
30 33 31 30 29 28 29 31 29 27 26 23 21 20 18 19 19 13 12 13 9 3 1 3 8 14 19 23 30 38 47 48 58 62 66 65 60 56
26 30 32 31 31 30 34 34 33 28 25 26 23 22 24 22 17 15 15 10 8 7 4 1 10 14 20 24 27 36 45 44 57 64 66 59 50 47
34 37 41 43 44 44 43 41 38 35 34 32 30 27 26 23 20 21 18 15 14 12 4 4 11 17 19 22 33 41 48 53 58 61 67 72 66 58
42 43 49 49 50 51 49 46 42 39 36 33 32 31 27 29 27 29 24 19 19 15 6 4 10 14 19 27 37 48 53 56 58 61 65 73 79 69
49 48 51 53 53 55 53 50 46 43 39 40 39 35 37 35 31 29 29 26 22 13 6 4 12 20 28 40 36 49 53 54 60 63 66 70 74 75
57 56 56 56 55 58 58 57 53 49 48 46 43 43 43 36 36 39 35 29 24 16 7 2 12 22 30 35 38 40 46 51 57 62 68 68 65 65
65 64 61 62 63 63 62 61 60 58 55 53 51 49 46 42 44 40 33 27 19 14 7 3 11 20 26 30 33 38 40 42 46 53 60 68 76 72
61 70 69 69 68 67 65 63 63 61 60 61 59 56 53 50 49 42 33 23 20 12 6 1 10 17 22 28 33 37 43 44 42 39 37 46 53 53
64 65 71 73 73 72 69 68 65 64 68 69 66 64 60 56 43 37 22 30 23 16 9 1 6 13 21 26 31 37 43 49 54 51 49 51 39 40
Wind_Direction_850mb
198 202 199 200 192 199 174 216 181 151 128 169 164 173 172 171 159 156 159 166 173 178 202 204 200 187 212 261 304 321 322 311 310 318 318 318 317 316
192 197 201 198 181 170 198 188 196 179 153 166 164 168 175 168 164 154 152 163 175 169 180 188 191 197 239 309 312 319 327 326 323 321 318 317 316 314
189 190 182 180 179 190 179 187 190 185 168 171 177 180 178 177 162 157 161 173 169 165 162 157 178 222 275 301 317 324 329 323 322 319 317 313 312 312
176 183 183 185 185 180 182 182 179 175 172 171 184 191 179 173 172 173 187 198 176 160 166 160 201 259 299 321 324 325 327 329 329 328 324 321 319 315
152 164 174 168 169 174 178 164 167 159 176 160 150 153 152 170 179 187 190 169 150 154 149 168 139 318 323 332 335 334 326 322 317 312 306 303 302 305
149 158 166 163 166 172 164 154 150 165 154 149 152 146 152 156 174 190 176 168 163 158 147 69 356 346 345 332 324 316 306 302 301 302 301 301 300 299
147 162 164 165 168 164 152 141 139 138 136 139 136 142 159 166 165 164 160 159 144 159 118 63 14 339 319 310 307 303 306 306 307 304 301 301 300 301
163 167 164 165 148 145 148 144 149 144 150 150 159 171 170 160 154 150 159 146 127 114 48 347 339 326 324 330 327 325 319 314 308 306 304 304 305 310
162 162 161 154 161 151 142 144 141 147 157 160 152 145 149 147 141 131 129 129 106 319 330 326 337 342 345 341 327 319 315 317 321 321 319 315 312 313
141 161 145 146 147 143 143 150 151 144 134 121 109 108 122 129 133 142 145 208 289 301 328 339 342 346 340 324 316 318 332 332 329 330 329 328 325 320
133 146 135 135 142 145 147 142 144 143 139 138 143 135 142 148 144 144 157 238 317 325 336 335 325 321 321 308 332 331 330 331 334 335 330 329 324 320
156 161 155 152 153 155 146 140 149 143 125 135 155 155 149 144 124 92 39 350 326 315 312 302 291 324 354 258 318 337 340 338 344 341 339 334 329 325
153 162 168 176 175 168 158 147 154 151 155 151 155 175 191 153 131 183 285 291 284 275 284 284 309 354 354 343 343 350 348 346 347 345 339 337 336 335
167 165 166 166 169 173 174 173 187 199 207 205 205 197 186 205 247 254 258 265 267 256 242 345 357 349 360 356 357 353 352 347 350 345 343 344 340 333
173 175 178 179 179 177 181 195 208 214 215 208 203 207 218 228 229 243 264 275 271 203 164 311 350 8 9 6 359 352 352 357 351 347 348 351 341 333
184 185 189 191 189 192 196 199 206 205 209 212 218 228 221 214 228 246 261 235 225 226 209 10 17 23 17 8 3 1 359 357 354 352 346 348 354 349
204 201 198 200 199 196 197 199 199 204 215 227 237 234 218 213 221 235 223 216 214 198 191 40 30 22 15 9 3 5 4 360 356 347 347 349 359 1
209 210 206 204 202 199 201 204 210 218 227 235 236 230 226 213 213 200 205 202 205 182 173 76 41 19 24 21 10 4 4 358 353 352 351 348 350 355
218 218 213 208 204 207 211 217 223 228 235 238 235 226 213 212 212 209 199 201 192 185 178 37 14 10 15 23 17 3 357 354 354 354 351 350 348 351
220 221 219 216 215 217 220 225 228 232 236 233 224 218 215 219 214 202 193 201 193 186 189 356 4 9 14 14 8 3 356 357 356 353 350 350 350 351
222 223 224 224 224 224 227 231 236 237 239 229 221 221 219 220 207 196 189 191 197 197 198 348 9 9 8 5 5 3 6 6 1 355 350 350 353 353
232 230 227 227 229 231 231 233 235 239 237 229 225 218 214 210 200 192 186 193 205 205 203 305 9 5 3 4 1 1 2 4 8 7 3 2 354 344
235 237 236 235 234 235 237 239 240 240 235 230 224 213 211 198 193 184 180 214 215 206 205 295 357 3 6 359 357 4 1 3 2 7 12 8 12 6